Preview of NWS' New Version of Forecast
This preview is not operational and should not be used for support decisions.

Regional Weather Roundup (RWR)

Issued by National Weather Service (NWS)

                            
000
ASUS44 KJAN 190810
RWRMS 

MISSISSIPPI HOURLY WEATHER ROUNDUP
NATIONAL WEATHER SERVICE JACKSON MS
300 AM CDT FRI APR 19 2019

NOTE: "FAIR: INDICATES FEW OR NO CLOUDS BELOW 12,000 FEET WITH NO
SIGNIFICANT WEATHER AND/OR OBSTRUCTIONS TO VISIBILITY.

MSZ001>002-007>008-010>013-018>021-025>028-034>036-190900-
NORTHWEST MISSISSIPPI
  
CITY           SKY/WX    TMP DP  RH WIND       PRES   REMARKS
BATESVILLE       N/A     50  46  87 NW9       29.66S                  
CLARKSDALE     CLOUDY    52  50  93 NW17G24   29.70F                  
CLEVELAND      CLOUDY    51  47  86 NW24      29.71F                  
GREENWOOD      CLOUDY    52  47  83 NW9       29.68S                  
GREENVILLE     CLOUDY    52  46  80 NW18      29.72F                  
OLIVE BRANCH   CLOUDY    46  46 100 N13G20    29.64F                  
OXFORD         CLOUDY    46  46 100 NW13G20   29.64F                  
TUNICA           N/A     48  45  87 NW21      29.69F                  
WINONA         CLOUDY    49  48  98 NW6       29.65S                  
$$

MSZ003>006-009-014>017-022>024-029>033-037>039-190900-
NORTHEAST MISSISSIPPI
  
CITY           SKY/WX    TMP DP  RH WIND       PRES   REMARKS
ABERDEEN       DRIZZLE   57  57 100 W10G22    29.57S                  
COLUMBUS AFB   LGT RAIN  59  55  88 W14G28    29.56R                  
CORINTH        DRIZZLE   50  48  93 NW14G23   29.55F                  
GOLDN TRIANGLE CLOUDY    57  55  93 W13G20    29.57F                  
STARKVILLE     CLOUDY    52  52 100 NW10G16   29.61R                  
TUPELO         CLOUDY    52  48  86 NW10G21   29.57R                  
$$

MSZ040-058-190900-
CENTRAL MISSISSIPPI
  
CITY           SKY/WX    TMP DP  RH WIND       PRES   REMARKS
JACKSON INTL   CLOUDY    53  49  86 NW9       29.69F                  
JACKSON HAWKNS CLOUDY    53  49  86 NW12      29.70S                  
MADISON        CLOUDY    52  50  93 NW10G16   29.68S                  
MERIDIAN KEY   CLOUDY    59  55  87 W16G24    29.60R                  
MERIDIAN NAS   MOCLDY    62  59  90 W13       29.58S                  
RAYMOND        PTSUNNY   54  54 100 W12       29.71S                  
VICKSBURG VKS  CLOUDY    54  48  82 NW13G18   29.75F                  
$$

MSZ059>079-190900-
SOUTH MISSISSIPPI
  
CITY           SKY/WX    TMP DP  RH WIND       PRES   REMARKS
HATTIESBURG    LGT RAIN  62  59  90 W15       29.64F                  
LAUREL         CLOUDY    58  56  93 W16G22    29.63S                  
MCCOMB         CLOUDY    54  49  83 NW14      29.72F                  
NATCHEZ        MOCLDY    52  48  86 NW7       29.77F                  
PINE BELT      CLOUDY    55  54  94 NW10      29.66R                  
$$

MSZ080>082-190900-
COASTAL MISSISSIPPI
  
CITY           SKY/WX    TMP DP  RH WIND       PRES   REMARKS
BILOXI         MOCLDY    64  61  88 CALM      29.63F                  
PASCAGOULA     FAIR      65  60  84 W6        29.63S                  
GULFPORT       LGT RAIN  63  61  93 W9        29.64S                  
$$

LAZ007>009-015>016-023>026-190900-
NORTHEAST LOUISIANA
  
CITY           SKY/WX    TMP DP  RH WIND       PRES   REMARKS
BASTROP        FAIR      50  48  92 NW7       29.78F                  
TALLULAH/VBURG CLOUDY    54  48  80 NW9       29.75S                  
VIDALIA        FAIR      54  48  80 NW9G18    29.77F                  
$$